Dewpoint
50 49 44 39 33 32 31 34 37 32 34 32 30 38 37 35 33 33 31 35 40 41 41 41 42 43 43 42 42 42 41 41 41 41 41 38 39 40
50 49 45 39 33 33 31 31 31 33 33 31 27 30 35 33 34 32 31 34 38 40 41 42 42 42 41 41 42 42 41 40 40 40 36 37 38 38
50 48 44 39 34 30 29 29 29 32 32 29 28 29 30 32 30 33 32 33 31 38 40 41 42 42 41 41 41 41 40 40 39 35 35 36 36 37
49 49 47 48 44 42 32 27 27 30 31 27 28 28 30 31 30 32 31 30 31 35 39 41 41 41 40 40 40 40 40 39 35 34 35 35 35 34
49 49 49 49 48 48 46 38 31 29 28 27 27 29 30 31 31 32 33 30 30 32 36 37 38 38 39 39 39 39 38 32 32 34 34 33 32 31
50 50 50 49 48 47 46 46 41 33 30 28 26 27 29 30 31 30 30 32 31 28 29 30 33 35 36 37 37 35 30 31 33 32 32 30 30 29
50 50 50 49 49 47 45 43 39 35 31 28 28 28 28 27 28 30 30 30 30 31 30 30 31 32 33 32 29 25 29 31 31 29 28 29 28 29
49 49 49 47 47 45 44 40 37 35 30 28 27 25 26 27 30 30 32 31 28 32 33 32 30 31 28 28 25 27 29 29 27 27 27 27 27 27
49 48 48 46 46 45 45 42 38 37 31 29 26 25 26 27 29 30 31 32 36 31 33 30 28 29 27 21 25 27 28 25 25 26 25 25 25 26
49 48 47 46 45 45 43 41 39 38 34 31 29 29 27 29 30 32 32 31 28 27 30 26 29 32 26 23 24 26 24 23 23 24 24 23 24 24
50 48 47 45 44 44 42 40 38 37 37 34 31 31 31 32 32 31 27 26 25 26 27 31 28 31 24 23 22 23 22 21 21 22 21 21 22 23
49 47 46 45 42 42 41 40 40 39 36 34 33 32 33 34 32 31 29 26 26 24 30 28 28 29 30 23 21 21 22 17 18 17 16 18 21 21
47 47 46 45 43 42 44 43 43 43 38 34 32 33 33 33 30 31 31 28 27 28 29 29 27 25 27 28 24 21 19 16 14 13 13 16 19 19
47 47 46 46 44 43 44 43 43 39 35 33 31 30 30 29 29 28 28 28 30 30 29 27 25 26 25 27 28 23 18 16 13 12 15 16 17 16
48 47 45 43 43 44 44 41 40 35 33 32 30 30 30 30 27 26 25 23 22 21 22 23 26 25 25 25 24 22 17 18 16 15 17 17 17 16
47 46 44 42 43 43 42 40 38 35 33 32 30 31 29 28 26 26 24 23 22 21 23 24 25 27 24 23 22 22 19 17 18 17 18 18 17 15
46 44 42 41 40 40 40 39 38 36 35 33 30 29 27 27 26 26 25 25 25 21 20 22 22 23 23 22 22 21 20 20 19 19 19 18 18 17
44 41 40 40 39 39 39 38 37 37 36 33 31 29 27 27 26 26 26 26 25 24 23 23 21 20 19 20 21 22 23 20 20 20 20 18 18 19
42 41 40 39 39 39 39 38 37 37 36 35 32 31 29 28 27 26 26 27 26 26 24 23 22 21 22 22 22 22 19 20 20 20 19 18 17 20
43 40 40 40 39 39 39 38 38 37 35 34 33 31 30 28 27 26 26 26 25 22 20 20 20 18 22 24 19 22 21 19 19 19 19 20 21 20
42 41 41 40 39 39 39 39 38 37 35 34 32 31 30 29 27 27 26 26 23 21 20 19 19 20 19 19 15 17 20 17 17 18 19 19 19 20
41 40 40 39 39 39 38 38 37 36 35 34 32 31 30 29 27 27 26 26 24 22 21 16 17 18 19 19 13 12 18 18 19 18 17 17 18 18
40 39 39 39 39 38 38 37 36 35 35 35 33 31 30 28 28 27 26 24 23 19 15 13 16 17 15 17 16 14 12 15 16 17 20 17 18 18
Wind_Speed
30 28 24 18 12 11 9 10 9 9 16 14 8 19 17 16 15 15 15 14 16 13 13 12 10 9 9 11 11 11 14 15 15 17 19 21 23 24
22 26 24 18 13 11 11 8 4 5 5 7 13 5 15 13 13 15 14 11 14 13 14 13 12 10 9 11 12 11 13 15 15 16 19 21 22 24
25 24 23 17 17 15 11 10 8 5 4 2 3 6 7 14 13 14 13 13 11 14 14 12 11 9 8 10 12 12 13 15 15 16 18 19 22 24
31 29 28 22 21 15 12 12 12 9 5 6 4 4 4 8 12 14 13 12 12 10 11 10 9 8 7 8 10 12 13 11 13 14 16 20 22 25
32 33 32 30 28 24 22 19 11 9 6 7 6 2 2 7 7 11 13 11 9 5 7 6 9 7 8 7 9 9 6 9 11 14 17 20 23 25
29 29 29 30 30 29 26 24 18 14 10 11 8 6 3 4 5 11 10 10 9 6 6 7 5 6 8 7 6 5 5 7 9 13 17 21 23 24
25 25 26 27 29 28 25 25 23 22 16 15 9 6 7 7 10 10 8 8 8 6 7 5 3 5 4 4 3 1 4 5 9 13 18 21 22 24
27 26 25 29 30 29 27 27 28 27 23 16 12 12 11 9 11 12 9 6 7 8 7 5 3 6 3 2 1 2 2 5 10 15 18 19 23 26
28 27 25 24 28 26 26 24 24 26 26 24 23 16 14 16 15 15 12 8 5 6 6 6 2 3 2 2 1 1 1 6 11 14 16 20 24 26
27 28 28 25 28 27 25 22 22 24 23 19 20 15 13 17 18 12 14 10 8 4 2 4 3 5 3 1 1 3 2 7 12 15 16 21 23 25
26 27 28 27 31 32 27 26 23 22 16 16 13 16 16 21 20 18 15 15 5 4 5 6 4 2 1 2 3 1 4 9 15 15 17 19 22 24
24 25 31 28 32 36 30 28 26 25 19 17 12 14 16 19 24 13 20 20 8 5 9 9 5 3 2 2 1 3 5 8 16 13 18 19 19 16
24 23 23 28 34 37 32 28 31 22 23 19 16 15 13 14 11 8 10 15 11 4 7 6 5 5 3 2 0 2 4 8 9 13 16 19 20 15
26 24 24 34 36 38 35 28 21 24 22 21 21 18 18 16 11 11 12 13 10 8 14 5 6 5 5 2 1 5 6 5 6 11 14 17 17 17
26 29 31 39 39 36 36 27 27 22 23 23 24 20 17 16 15 14 14 17 18 14 9 5 7 7 5 5 2 3 7 5 8 13 15 14 13 12
26 25 27 32 34 28 28 27 23 24 26 25 22 16 17 17 18 11 12 11 12 8 11 12 8 3 5 7 2 2 2 6 11 12 14 10 11 10
26 22 21 23 24 22 23 23 20 20 20 19 20 20 20 18 13 10 13 13 10 12 8 6 7 8 8 7 2 1 5 5 9 12 9 13 8 11
28 28 25 25 27 28 27 24 20 22 20 21 20 22 23 21 19 13 15 12 17 14 11 8 7 5 3 2 1 1 3 5 9 12 9 10 11 12
29 27 28 28 25 26 27 28 25 25 24 23 22 23 22 19 23 19 16 15 14 14 10 10 8 6 5 3 2 4 1 4 9 6 8 8 9 16
29 28 29 27 25 27 26 25 23 24 24 23 23 23 24 26 23 22 21 19 19 12 9 6 7 9 7 4 4 2 6 3 5 6 6 8 9 14
27 29 28 27 26 26 28 26 27 27 26 24 22 24 24 25 23 21 20 21 21 12 14 11 7 7 7 4 4 2 1 6 5 4 8 7 8 7
19 23 25 26 26 27 29 27 25 25 25 24 24 23 24 24 24 23 21 24 18 15 12 12 8 7 3 3 5 2 2 4 5 4 6 3 3 6
15 20 22 25 26 27 27 28 28 26 26 25 24 24 25 24 22 21 21 18 20 19 20 15 8 4 4 3 4 3 2 5 7 8 3 3 9 12
Wind_Direction
189 190 194 192 184 177 167 170 152 172 212 209 184 208 206 204 203 198 208 210 214 222 237 251 262 269 287 294 292 303 308 314 320 323 328 328 331 333
192 188 192 188 180 173 173 164 153 156 161 183 205 170 199 200 199 204 206 201 213 218 232 243 252 263 281 288 293 299 305 310 318 323 325 329 332 332
185 183 188 184 186 176 173 164 157 145 154 138 125 168 176 201 196 204 201 205 212 216 231 239 255 266 278 288 295 303 306 310 318 324 326 329 334 330
192 185 186 187 193 190 184 192 177 168 166 157 147 163 185 188 199 197 205 210 210 200 215 232 255 264 278 291 296 296 302 315 315 323 325 331 330 330
194 193 193 192 193 198 198 205 192 174 170 151 146 135 139 166 175 197 201 211 213 191 212 228 243 254 262 266 275 288 315 322 321 326 333 331 328 330
197 196 193 193 195 193 196 199 194 189 187 155 150 157 160 156 162 181 194 206 209 196 205 223 223 234 251 258 280 309 325 319 326 333 332 329 330 333
190 191 191 192 194 190 187 190 181 185 182 177 172 156 179 166 189 179 181 182 207 194 197 200 209 237 227 233 241 328 324 328 335 335 333 330 332 328
185 189 190 183 189 185 187 190 185 184 185 177 172 195 195 176 159 161 148 159 194 192 180 156 195 226 208 182 73 307 336 342 339 333 334 333 331 330
186 183 185 186 184 186 192 188 185 189 186 186 189 194 185 187 160 161 174 172 163 155 142 164 194 215 211 153 299 145 2 348 337 336 333 336 332 327
189 183 185 181 185 183 181 187 190 200 201 196 203 186 185 171 172 171 161 124 94 122 137 151 178 213 177 96 178 185 10 342 341 334 337 338 332 332
190 189 187 184 184 177 177 181 187 200 207 209 198 179 169 166 157 135 152 156 152 174 186 151 187 173 81 228 200 244 307 337 338 331 337 337 339 338
190 193 192 185 179 177 177 181 185 195 185 187 174 153 155 164 165 170 162 168 138 164 200 168 154 145 177 187 262 290 319 337 331 334 337 335 348 341
188 188 195 187 178 178 183 184 197 180 182 177 158 145 144 152 163 132 141 163 159 137 173 140 149 157 164 129 257 312 335 334 331 330 334 335 349 1
189 191 194 185 181 185 187 192 176 161 164 163 161 158 161 160 142 120 106 95 70 119 143 118 134 163 145 106 346 338 328 319 332 335 336 335 349 358
192 191 187 183 180 183 187 179 162 158 160 165 172 170 164 143 123 104 91 94 82 73 71 63 123 132 101 108 35 341 335 327 335 346 336 343 346 350
185 186 180 181 184 185 180 169 172 167 168 175 172 144 133 145 150 142 133 131 111 90 56 63 76 109 118 91 103 295 316 331 329 342 329 341 352 359
171 168 167 172 177 172 177 171 168 163 160 157 153 151 154 155 157 152 142 144 138 150 145 99 83 86 80 118 156 242 342 313 329 334 340 347 341 357
164 167 167 175 183 172 169 165 168 166 163 157 161 161 165 165 158 157 151 157 151 157 151 156 160 109 74 70 149 70 322 315 331 331 348 344 335 343
170 173 169 181 184 175 165 170 171 175 166 163 165 167 162 160 158 161 156 150 141 144 148 161 150 131 150 219 112 198 10 321 322 340 360 352 321 314
180 175 174 179 179 168 166 169 168 165 165 165 165 166 164 161 165 167 166 157 151 141 152 150 146 154 164 179 162 152 199 292 317 344 344 336 301 304
183 181 178 174 176 168 166 169 169 168 164 164 166 165 165 164 169 165 159 153 148 146 165 157 131 107 111 112 127 141 180 226 271 321 321 337 351 338
185 185 178 165 169 164 165 164 162 164 159 164 167 167 165 166 164 162 159 157 160 157 141 127 122 122 121 153 158 165 301 331 337 298 255 247 339 325
188 182 176 170 166 163 168 164 164 164 165 164 164 165 162 162 160 158 154 153 144 143 142 136 129 115 116 126 148 128 24 19 357 358 360 212 305 286